Preview of NWS' New Version of Forecast
This preview is not operational and should not be used for support decisions.

Regional Weather Roundup (RWR)

Issued by National Weather Service (NWS)

                            
000
ASUS43 KLSX 161907
RWRMO 

WEATHER SUMMARY FOR MISSOURI
NATIONAL WEATHER SERVICE SPRINGFIELD MO
200 PM CDT MON SEP 16 2019

NOTE: "FAIR" INDICATES FEW OR NO CLOUDS BELOW 12,000 FEET WITH NO
       SIGNIFICANT WEATHER AND/OR OBSTRUCTIONS TO VISIBILITY.
       CURRENT SKY AND/OR WEATHER CONDITIONS ARE NOT AVAILABLE FOR
       CHILLICOTHE AND FARMINGTON.

MOZ001>031-035>038-043-044-053-054-162000-
...NORTHERN AND WESTERN MISSOURI...
  
CITY           SKY/WX    TMP DP  RH WIND       PRES   REMARKS
KANSAS CTY INT PTSUNNY   88  73  61 SW9       30.07F HX  95           
KANSAS C DTWN  SUNNY     92  67  43 SW8       30.04F HX  95           
LEE'S SUMMIT   SUNNY     91  68  46 W5        30.07F HX  95           
ST JOSEPH      SUNNY     90  70  51 S8        30.04F HX  95           
CHILLICOTHE      N/A     92  71  50 CALM      30.07F HX  98           
KIRKSVILLE     SUNNY     91  69  48 VRB3      30.08F HX  96           
     
$$
MOZ066>068-077>081-088>096-101>105-162000-
...SOUTHWEST MISSOURI...
  
CITY           SKY/WX    TMP DP  RH WIND       PRES   REMARKS
SPRINGFIELD    SUNNY     93  67  42 CALM      30.10F HX  96           
JOPLIN         SUNNY     90  72  55 W3        30.09F HX  97           
BRANSON        PTSUNNY   91  66  43 NW5       30.13F HX  94           
               
$$
MOZ032>034-039>042-045>050-055>058-069>072-162000-
...CENTRAL MISSOURI...  
  
CITY           SKY/WX    TMP DP  RH WIND       PRES   REMARKS
COLUMBIA       SUNNY     92  68  45 VRB3      30.09F HX  96           
JEFFERSON CITY SUNNY     92  68  45 NW5       30.07F HX  96           
ROLLA          SUNNY     91  66  43 W5        30.11F HX  93           
SEDALIA        SUNNY     90  67  46 N3        30.09F HX  93           
WHITEMAN AFB   PTSUNNY   92  70  48 S6        30.04F HX  97           
WARRENSBURG    SUNNY     90  68  48 SW6       30.07F HX  93           
OSAGE BEACH    SUNNY     91  69  48 SW8       30.10F HX  96           
               
$$
MOZ051-052-059>065-162000-
...EAST CENTRAL MISSOURI...
  
CITY           SKY/WX    TMP DP  RH WIND       PRES   REMARKS
ST LOUIS INTL  MOSUNNY   94  70  45 NW5       30.07F HX 100           
SPIRIT OF STL  MOSUNNY   93  72  50 SW7       30.06F HX 101           
ST CHARLES       N/A    N/A N/A N/A MISG      30.05F                  
                   
$$
MOZ072>076-082>087-097>100-106>115-162000-
...SOUTH CENTRAL AND SOUTHEAST MISSOURI...
  
CITY           SKY/WX    TMP DP  RH WIND       PRES   REMARKS
CAPE GIRARDEAU FAIR      96  64  34 CALM      30.04F HX  98           
FARMINGTON     SUNNY     92  67  43 VRB3      30.10F HX  95           
POPLAR BLUFF   FAIR      95  66  38 CALM      30.06F HX  98           
WEST PLAINS    SUNNY     92  64  39 S5        30.13F HX  93           
                                       
$$